Weather History for Somerville, NJ

Change the Weather History Date:

Wednesday, November 26, 2014

  Actual Average Record
Temperature  
Mean Temperature 40 °F -  
Max Temperature 46 °F 49 °F 75 °F (1979)
Min Temperature 33 °F 29 °F 5 °F (1938)
Degree Days  
Heating Degree Days 26    
Moisture  
Dew Point 32 °F    
Average Humidity 86    
Maximum Humidity 93    
Minimum Humidity 51    
Precipitation  
Precipitation 0.96 in - - ()
Sea Level Pressure  
Sea Level Pressure 29.96 in    
Wind  
Wind Speed 5 mph (NNW)    
Max Wind Speed 10 mph    
Max Gust Speed 20 mph    
Visibility 5 miles    
Events Fog , Rain , Snow    
Averages and records for this station are not official NWS values.
T = Trace of Precipitation, MM = Missing Value Source: NWS Daily Summary

Daily Weather History Graph

Daily Weather History Graph

Search for Another Location

Airport:

Trip Planner

Search our weather history database for the weather conditions in past years. The results will help you decide how hot, cold, wet, or windy it might be!

Date:

Astronomy

Nov. 26, 2014 Rise Set
Actual Time 6:57 AM EST 4:33 PM EST
Civil Twilight 6:27 AM EST 5:04 PM EST
Nautical Twilight 5:54 AM EST 5:37 PM EST
Astronomical Twilight 5:21 AM EST 6:10 PM EST
Moon 10:27 AM EST (11/26) 9:03 PM EST (11/26)
Length of Visible Light 10h 36m
Length of Day
9h 36m
Waxing Crescent, 21% of the Moon is Illuminated
Nov 26
Waxing Crescent
Nov 29
First Quarter
Dec 6
Full
Dec 14
Last Quarter
Dec 21
New

Hourly Weather History & Observations

Time (EST) Temp. Windchill Dew Point Humidity Pressure Visibility Wind Dir Wind Speed Gust Speed Precip Events Conditions
12:53 AM 37.9 °F - 33.1 °F 83% 30.17 in 10.0 mi Calm Calm - N/A   Clear
1:53 AM 39.0 °F - 33.1 °F 79% 30.18 in 10.0 mi Calm Calm - N/A   Clear
2:53 AM 39.9 °F - 33.1 °F 77% 30.19 in 10.0 mi Calm Calm - N/A   Mostly Cloudy
3:53 AM 39.9 °F - 33.1 °F 77% 30.15 in 10.0 mi Calm Calm - N/A   Overcast
4:53 AM 42.1 °F 38.4 °F 32.0 °F 67% 30.12 in 10.0 mi NNW 5.8 mph - N/A   Overcast
5:53 AM 46.0 °F 41.0 °F 28.9 °F 51% 30.09 in 10.0 mi NNE 10.4 mph - 0.00 in Rain Light Rain
6:53 AM 43.0 °F 39.5 °F 33.1 °F 68% 30.14 in 7.0 mi North 5.8 mph - 0.02 in Rain Light Rain
7:53 AM 39.9 °F 35.1 °F 34.0 °F 79% 30.11 in 7.0 mi ENE 6.9 mph - 0.09 in Rain Light Rain
8:21 AM 39.0 °F 32.3 °F 35.1 °F 86% 30.10 in 2.5 mi NNE 10.4 mph - 0.05 in Rain Rain
8:53 AM 39.0 °F 34.8 °F 35.1 °F 86% 30.13 in 2.5 mi NNE 5.8 mph - 0.12 in Rain Rain
9:06 AM 37.9 °F 32.7 °F 34.0 °F 86% 30.10 in 2.0 mi NNE 6.9 mph - 0.04 in Rain Rain
9:50 AM 35.6 °F 32.8 °F 33.8 °F 93% 30.14 in 2.0 mi NNW 3.5 mph - 0.12 in Rain Light Rain
9:53 AM 35.1 °F - 33.1 °F 92% 30.15 in 2.0 mi Calm Calm - 0.13 in Rain Light Rain
9:59 AM 35.1 °F 30.1 °F 32.0 °F 89% 30.11 in 1.8 mi North 5.8 mph - 0.00 in Snow Light Snow
10:31 AM 33.8 °F 30.8 °F 30.2 °F 87% 30.09 in 0.8 mi North 3.5 mph - N/A Snow Light Snow
10:44 AM 33.1 °F - 30.9 °F 92% 30.09 in 0.5 mi Calm Calm - 0.01 in Fog , Snow Snow
10:53 AM 33.1 °F 30.0 °F 30.9 °F 92% 30.07 in 0.5 mi North 3.5 mph - 0.01 in Fog , Snow Snow
11:22 AM 34.0 °F 28.8 °F 30.9 °F 89% 30.03 in 0.8 mi North 5.8 mph - 0.00 in Snow Light Snow
11:33 AM 34.0 °F 28.8 °F 30.9 °F 89% 30.04 in 1.2 mi NW 5.8 mph - 0.00 in Snow Light Snow
11:53 AM 34.0 °F 31.0 °F 30.9 °F 89% 30.04 in 1.2 mi North 3.5 mph - 0.01 in Snow Light Snow
12:05 PM 33.8 °F 29.6 °F 30.2 °F 87% 30.02 in 0.8 mi North 4.6 mph - N/A Snow Light Snow
12:53 PM 33.1 °F 27.7 °F 30.9 °F 92% 30.00 in 0.5 mi North 5.8 mph - 0.03 in Fog , Snow Snow
1:16 PM 33.1 °F 27.7 °F 30.9 °F 92% 29.95 in 1.0 mi North 5.8 mph - 0.01 in Snow Light Snow
1:25 PM 33.1 °F 28.7 °F 30.9 °F 92% 29.94 in 0.8 mi North 4.6 mph - 0.02 in Snow Light Snow
1:39 PM 33.1 °F 28.7 °F 30.9 °F 92% 29.95 in 1.0 mi NW 4.6 mph - 0.02 in Snow Light Snow
1:53 PM 34.0 °F 28.0 °F 30.9 °F 89% 29.94 in 1.0 mi NNW 6.9 mph - 0.03 in Snow Light Snow
2:32 PM 34.0 °F 28.8 °F 30.9 °F 89% 29.86 in 1.5 mi NNW 5.8 mph - 0.02 in Snow Light Snow
2:50 PM 33.8 °F 29.6 °F 32.0 °F 93% 29.85 in 3.0 mi North 4.6 mph - 0.03 in Snow Light Snow
2:51 PM 34.0 °F 31.0 °F 32.0 °F 92% 29.86 in 3.0 mi North 3.5 mph - 0.03 in Snow Light Snow
3:07 PM 34.0 °F 31.0 °F 30.9 °F 89% 29.87 in 2.0 mi Variable 3.5 mph - 0.01 in Snow Light Snow
3:18 PM 34.0 °F 31.0 °F 32.0 °F 92% 29.86 in 3.0 mi NW 3.5 mph - 0.02 in Snow Light Snow
3:27 PM 34.0 °F 28.8 °F 32.0 °F 92% 29.85 in 2.0 mi NNW 5.8 mph - 0.03 in Snow Light Snow
3:38 PM 34.0 °F 27.2 °F 30.9 °F 89% 29.84 in 2.5 mi NNW 8.1 mph - 0.04 in Snow Light Snow
3:53 PM 34.0 °F 28.0 °F 30.9 °F 89% 29.83 in 2.5 mi NNW 6.9 mph - 0.05 in Snow Light Snow
4:01 PM 34.0 °F 28.8 °F 30.9 °F 89% 29.81 in 3.0 mi NNW 5.8 mph - 0.00 in Snow Light Snow
4:10 PM 34.0 °F 28.0 °F 30.9 °F 89% 29.81 in 2.5 mi NNW 6.9 mph - 0.01 in Snow Light Snow
4:21 PM 34.0 °F 28.0 °F 30.9 °F 89% 29.81 in 4.0 mi NNW 6.9 mph - 0.02 in Snow Light Snow
4:53 PM 35.1 °F 27.9 °F 30.9 °F 85% 29.82 in 4.0 mi NNW 9.2 mph - 0.04 in Snow Light Snow
5:40 PM 35.1 °F 28.6 °F 30.9 °F 85% 29.81 in 5.0 mi NNW 8.1 mph - 0.03 in Rain Light Rain
5:53 PM 35.1 °F 27.4 °F 32.0 °F 89% 29.82 in 4.0 mi NNW 10.4 mph - 0.04 in Rain Light Rain
6:11 PM 35.1 °F 28.6 °F 32.0 °F 89% 29.83 in 5.0 mi NW 8.1 mph - 0.02 in Rain Light Rain
6:53 PM 35.1 °F 28.6 °F 32.0 °F 89% 29.84 in 4.0 mi NNW 8.1 mph - 0.06 in Rain Light Rain
7:53 PM 36.0 °F 28.5 °F 32.0 °F 86% 29.84 in 10.0 mi NNW 10.4 mph - 0.08 in Rain Light Rain
8:05 PM 36.0 °F 29.6 °F 32.0 °F 86% 29.83 in 10.0 mi NNW 8.1 mph - 0.01 in Rain Light Rain
8:18 PM 36.0 °F 28.5 °F 32.0 °F 86% 29.83 in 10.0 mi NNW 10.4 mph - 0.03 in   Overcast
8:34 PM 36.0 °F 28.5 °F 32.0 °F 86% 29.82 in 10.0 mi NNW 10.4 mph 18.4 mph 0.04 in   Overcast
8:53 PM 37.0 °F 29.8 °F 30.9 °F 79% 29.83 in 10.0 mi NNW 10.4 mph 19.6 mph 0.06 in   Overcast
9:53 PM 36.0 °F 31.1 °F 30.9 °F 82% 29.84 in 10.0 mi North 5.8 mph - 0.07 in   Overcast
10:53 PM 36.0 °F 29.0 °F 30.9 °F 82% 29.85 in 10.0 mi NW 9.2 mph - 0.05 in   Overcast
11:53 PM 36.0 °F 29.0 °F 30.0 °F 79% 29.86 in 10.0 mi NNW 9.2 mph - 0.04 in   Overcast